Location: Mauna Kea VIS
(19.7591°N, 155.4561°W)
Time: 15:07:31
(UTC-10:00)

Hubble Space Telescope - Pass Details

Date: 19 December 2025
Orbit: 479 x 481 km, 28.5° (Epoch: 16 January)

Event Time Altitude Azimuth Distance (km) Brightness Sun altitude
Rises 18:39:17 0° 289° (WNW) 2,522 5.0 -12.1°
Reaches altitude 10° 18:41:30 10° 287° (WNW) 1,643 4.1 -12.6°
Maximum altitude 18:45:15 69° 204° (SSW) 512 0.8 -13.4°
Enters shadow 18:48:39 12° 121° (ESE) 1,500 2.7 -14.1°
